RYR5SX LFML-ELLX

Flight info

Callsign RYR5SX
Flight time 1h 9m
Altitude 38000
Route ETREK DCT LUXAN DCT LTP DCT SOPLO DCT OMASI DCT KINNI/N0450F340 DCT GILIR DCT PENDU DCT IXILU DCT EPL G21 GIVOR
Aircraft B738/M-SDE2E3FGHIRWXY/LB1

Departure

Time 2026-05-07 12:11
Airport Marseille Provence Airport (LFML)

Arrival

Time 2026-05-07 13:20
Airport Luxembourg-Findel International Airport (ELLX)
Time Latitude Longitude Altitude Speed Heading
2026-05-07 12:02 43.44125 5.21698 31 ft 0 kts 89°
2026-05-07 12:05 43.44122 5.21718 31 ft 5 kts 111°
2026-05-07 12:06 43.44078 5.21745 32 ft 10 kts 186°
2026-05-07 12:06 43.44012 5.21682 33 ft 12 kts 208°
2026-05-07 12:06 43.43950 5.21744 35 ft 12 kts 133°
2026-05-07 12:06 43.43892 5.21827 37 ft 13 kts 134°
2026-05-07 12:07 43.43815 5.21937 40 ft 17 kts 134°
2026-05-07 12:07 43.43726 5.22037 43 ft 16 kts 149°
2026-05-07 12:07 43.43630 5.22114 46 ft 16 kts 150°
2026-05-07 12:07 43.43538 5.22188 48 ft 15 kts 150°
2026-05-07 12:08 43.43449 5.22259 51 ft 14 kts 149°
2026-05-07 12:08 43.43357 5.22300 53 ft 14 kts 161°
2026-05-07 12:08 43.43287 5.22386 56 ft 13 kts 134°
2026-05-07 12:08 43.43224 5.22475 53 ft 13 kts 134°
2026-05-07 12:09 43.43144 5.22590 62 ft 20 kts 134°
2026-05-07 12:09 43.43034 5.22747 63 ft 23 kts 134°
2026-05-07 12:09 43.42923 5.22903 63 ft 21 kts 134°
2026-05-07 12:09 43.42832 5.22955 69 ft 14 kts 197°
2026-05-07 12:10 43.42759 5.22871 72 ft 14 kts 224°
2026-05-07 12:10 43.42765 5.22793 67 ft 10 kts 309°
2026-05-07 12:10 43.42816 5.22718 66 ft 13 kts 313°
2026-05-07 12:10 43.43008 5.22444 58 ft 75 kts 314°
2026-05-07 12:11 43.43535 5.21695 41 ft 139 kts 314°
2026-05-07 12:11 43.44286 5.20628 357 ft 163 kts 313°
2026-05-07 12:11 43.45117 5.19446 941 ft 172 kts 313°
2026-05-07 12:11 43.45940 5.18279 1629 ft 178 kts 313°
2026-05-07 12:12 43.46867 5.16976 1941 ft 203 kts 314°
2026-05-07 12:12 43.47903 5.15537 2217 ft 221 kts 313°
2026-05-07 12:12 43.49010 5.13950 2454 ft 240 kts 313°
2026-05-07 12:12 43.50230 5.12211 2740 ft 261 kts 314°
2026-05-07 12:13 43.51478 5.10420 3700 ft 254 kts 313°
2026-05-07 12:13 43.52717 5.08642 4391 ft 262 kts 314°
2026-05-07 12:13 43.53986 5.06817 5175 ft 263 kts 313°
2026-05-07 12:13 43.55265 5.04971 5888 ft 268 kts 313°
2026-05-07 12:14 43.56557 5.03110 6688 ft 270 kts 313°
2026-05-07 12:14 43.57866 5.01234 7458 ft 273 kts 313°
2026-05-07 12:14 43.59183 4.99368 8215 ft 277 kts 313°
2026-05-07 12:14 43.60537 4.97454 8959 ft 280 kts 313°
2026-05-07 12:15 43.61908 4.95516 9761 ft 284 kts 312°
2026-05-07 12:15 43.63301 4.93545 10393 ft 294 kts 312°
2026-05-07 12:15 43.64784 4.91438 10570 ft 318 kts 312°
2026-05-07 12:15 43.66383 4.89167 10806 ft 339 kts 312°
2026-05-07 12:16 43.68233 4.87066 11317 ft 352 kts 330°
2026-05-07 12:16 43.70555 4.85909 12107 ft 357 kts 342°
2026-05-07 12:16 43.72958 4.84981 12895 ft 361 kts 343°
2026-05-07 12:16 43.75410 4.84060 13581 ft 368 kts 343°
2026-05-07 12:17 43.77890 4.83125 14293 ft 372 kts 343°
2026-05-07 12:17 43.80400 4.82164 15057 ft 375 kts 343°
2026-05-07 12:17 43.82923 4.81186 15813 ft 378 kts 343°
2026-05-07 12:17 43.85473 4.80189 16542 ft 382 kts 343°
2026-05-07 12:18 43.88009 4.79192 17246 ft 386 kts 343°
2026-05-07 12:18 43.90606 4.78167 17949 ft 390 kts 343°
2026-05-07 12:18 43.93230 4.77132 18606 ft 394 kts 342°
2026-05-07 12:18 43.95888 4.76082 19227 ft 397 kts 342°
2026-05-07 12:19 43.98563 4.75025 19858 ft 401 kts 342°
2026-05-07 12:19 44.01268 4.74013 20454 ft 405 kts 345°
2026-05-07 12:19 44.04032 4.73129 21051 ft 409 kts 346°
2026-05-07 12:19 44.06797 4.72304 21637 ft 412 kts 346°
2026-05-07 12:20 44.09616 4.71475 22218 ft 416 kts 346°
2026-05-07 12:20 44.12465 4.70631 22778 ft 419 kts 346°
2026-05-07 12:20 44.15327 4.69771 23384 ft 422 kts 345°
2026-05-07 12:20 44.18203 4.68897 23891 ft 424 kts 345°
2026-05-07 12:21 44.21098 4.68009 24324 ft 428 kts 345°
2026-05-07 12:21 44.24013 4.67110 24775 ft 430 kts 345°
2026-05-07 12:21 44.26959 4.66198 25226 ft 433 kts 344°
2026-05-07 12:21 44.29909 4.65285 25673 ft 436 kts 344°
2026-05-07 12:22 44.32877 4.64364 26102 ft 438 kts 344°
2026-05-07 12:22 44.35827 4.63449 26556 ft 440 kts 344°
2026-05-07 12:22 44.38823 4.62519 26983 ft 442 kts 343°
2026-05-07 12:22 44.41837 4.61582 27351 ft 445 kts 343°
2026-05-07 12:23 44.44879 4.60635 27735 ft 448 kts 343°
2026-05-07 12:23 44.47924 4.59687 28133 ft 450 kts 343°
2026-05-07 12:23 44.50998 4.58728 28499 ft 453 kts 343°
2026-05-07 12:23 44.54081 4.57766 28921 ft 454 kts 343°
2026-05-07 12:24 44.57180 4.56798 29297 ft 457 kts 343°
2026-05-07 12:24 44.60300 4.55822 29563 ft 461 kts 343°
2026-05-07 12:24 44.62373 4.55173 29786 ft 463 kts 343°
2026-05-07 12:24 44.66574 4.53937 30226 ft 468 kts 348°
2026-05-07 12:25 44.68787 4.53841 30395 ft 477 kts
2026-05-07 12:25 44.72080 4.54481 30798 ft 477 kts
2026-05-07 12:25 44.76423 4.55456 31345 ft 476 kts
2026-05-07 12:25 44.79694 4.56173 31715 ft 476 kts
2026-05-07 12:26 44.82961 4.56857 32060 ft 476 kts
2026-05-07 12:26 44.85184 4.57307 32319 ft 476 kts
2026-05-07 12:26 44.88459 4.57954 32712 ft 474 kts
2026-05-07 12:26 44.91679 4.58581 33144 ft 472 kts
2026-05-07 12:27 44.94922 4.59212 33635 ft 469 kts
2026-05-07 12:27 44.98161 4.59847 33995 ft 469 kts
2026-05-07 12:27 45.01390 4.60480 34240 ft 470 kts
2026-05-07 12:27 45.04636 4.61111 34448 ft 471 kts
2026-05-07 12:28 45.07898 4.61750 34722 ft 471 kts
2026-05-07 12:28 45.11140 4.62388 35052 ft 469 kts
2026-05-07 12:28 45.14371 4.63090 35394 ft 471 kts
2026-05-07 12:28 45.17437 4.64828 35546 ft 485 kts 29°
2026-05-07 12:29 45.20076 4.67858 35763 ft 492 kts 45°
2026-05-07 12:29 45.22053 4.71834 36022 ft 494 kts 60°
2026-05-07 12:29 45.23651 4.76070 36336 ft 493 kts 62°
2026-05-07 12:29 45.25220 4.80402 36555 ft 494 kts 62°
2026-05-07 12:30 45.26791 4.84742 36781 ft 494 kts 62°
2026-05-07 12:30 45.28381 4.89067 37093 ft 493 kts 61°
2026-05-07 12:30 45.29984 4.93360 37456 ft 491 kts 61°
2026-05-07 12:30 45.31594 4.97627 37743 ft 490 kts 61°
2026-05-07 12:31 45.33207 5.01894 37951 ft 491 kts 61°
2026-05-07 12:31 45.36453 5.10502 38014 ft 496 kts 61°
2026-05-07 12:32 45.39691 5.19143 38017 ft 493 kts 61°
2026-05-07 12:32 45.42876 5.27683 38022 ft 488 kts 61°
2026-05-07 12:33 45.47653 5.40465 38023 ft 487 kts 58°
2026-05-07 12:33 45.47756 5.40714 38015 ft 486 kts 57°
2026-05-07 12:34 45.51401 5.47339 37999 ft 481 kts 40°
2026-05-07 12:35 45.56375 5.53591 38001 ft 480 kts 38°
2026-05-07 12:35 45.61418 5.59878 38004 ft 481 kts 39°
2026-05-07 12:36 45.66422 5.66265 37990 ft 483 kts 39°
2026-05-07 12:36 45.71427 5.72702 38000 ft 485 kts 39°
2026-05-07 12:37 45.76459 5.79169 37996 ft 486 kts 39°
2026-05-07 12:37 45.81502 5.85652 38004 ft 488 kts 39°
2026-05-07 12:38 45.86558 5.92172 37986 ft 488 kts 40°
2026-05-07 12:38 45.91584 5.98670 37988 ft 488 kts 40°
2026-05-07 12:39 45.96631 6.05214 37990 ft 488 kts 40°
2026-05-07 12:39 46.01669 6.11766 38018 ft 487 kts 40°
2026-05-07 12:40 46.06817 6.18081 37982 ft 483 kts 28°
2026-05-07 12:40 46.09812 6.20179 38031 ft 476 kts 15°
2026-05-07 12:40 46.12992 6.21379 37895 ft 470 kts
2026-05-07 12:41 46.16221 6.21648 37614 ft 462 kts 356°
2026-05-07 12:41 46.19421 6.21685 37354 ft 458 kts 356°
2026-05-07 12:41 46.22598 6.21704 37093 ft 455 kts 356°
2026-05-07 12:41 46.25725 6.21732 36848 ft 454 kts 356°
2026-05-07 12:42 46.28878 6.21780 36586 ft 452 kts 356°
2026-05-07 12:42 46.32021 6.21846 36328 ft 451 kts 356°
2026-05-07 12:42 46.35156 6.21923 36077 ft 450 kts 356°
2026-05-07 12:42 46.38290 6.22007 35829 ft 449 kts 356°
2026-05-07 12:43 46.41414 6.22094 35598 ft 449 kts 356°
2026-05-07 12:43 46.44526 6.22181 35357 ft 448 kts 356°
2026-05-07 12:43 46.47648 6.22268 35116 ft 448 kts 356°
2026-05-07 12:43 46.50767 6.22355 34879 ft 447 kts 356°
2026-05-07 12:44 46.53877 6.22441 34647 ft 447 kts 356°
2026-05-07 12:44 46.56985 6.22527 34421 ft 447 kts 356°
2026-05-07 12:44 46.60094 6.22612 34193 ft 447 kts 356°
2026-05-07 12:44 46.63204 6.22698 34063 ft 447 kts 356°
2026-05-07 12:45 46.69451 6.22870 34021 ft 449 kts 356°
2026-05-07 12:45 46.75695 6.23044 34014 ft 448 kts 356°
2026-05-07 12:46 46.81936 6.23218 34033 ft 448 kts 356°
2026-05-07 12:46 46.88131 6.23391 34021 ft 448 kts 356°
2026-05-07 12:47 46.94364 6.23565 34025 ft 447 kts 356°
2026-05-07 12:47 47.00592 6.23739 34030 ft 447 kts 356°
2026-05-07 12:48 47.06678 6.23015 34049 ft 438 kts 342°
2026-05-07 12:48 47.12286 6.19786 34046 ft 431 kts 330°
2026-05-07 12:49 47.17656 6.15806 34032 ft 432 kts 329°
2026-05-07 12:49 47.23045 6.11869 34056 ft 433 kts 330°
2026-05-07 12:50 47.28457 6.07963 34045 ft 433 kts 330°
2026-05-07 12:50 47.34004 6.04426 34038 ft 438 kts 341°
2026-05-07 12:51 47.40035 6.03219 34040 ft 446 kts 356°
2026-05-07 12:51 47.46285 6.03415 34048 ft 447 kts 358°
2026-05-07 12:52 47.52470 6.03638 34036 ft 447 kts 358°
2026-05-07 12:52 47.58698 6.03789 34042 ft 447 kts 357°
2026-05-07 12:53 47.64927 6.03914 34066 ft 447 kts 358°
2026-05-07 12:53 47.71168 6.04041 34050 ft 448 kts 358°
2026-05-07 12:54 47.77402 6.04188 34049 ft 448 kts 358°
2026-05-07 12:54 47.83601 6.04384 34049 ft 448 kts 358°
2026-05-07 12:55 47.89842 6.04586 34057 ft 448 kts 358°
2026-05-07 12:55 47.96081 6.04783 34044 ft 448 kts 358°
2026-05-07 12:56 48.02345 6.04977 33521 ft 453 kts 358°
2026-05-07 12:56 48.05485 6.05074 32899 ft 450 kts 359°
2026-05-07 12:56 48.08568 6.05171 32250 ft 449 kts 359°
2026-05-07 12:57 48.11733 6.05270 31511 ft 449 kts 359°
2026-05-07 12:57 48.14820 6.05366 30849 ft 448 kts 359°
2026-05-07 12:57 48.17920 6.05464 30354 ft 443 kts 360°
2026-05-07 12:57 48.20988 6.05561 29788 ft 439 kts 360°
2026-05-07 12:58 48.21306 6.05571 29728 ft 438 kts 360°
2026-05-07 12:59 48.24795 6.05681 29112 ft 432 kts 360°
2026-05-07 13:00 48.27774 6.05786 28589 ft 426 kts
2026-05-07 13:00 48.30707 6.06395 28068 ft 424 kts 12°
2026-05-07 13:00 48.33489 6.07780 27603 ft 420 kts 21°
2026-05-07 13:00 48.36060 6.09818 27126 ft 417 kts 31°
2026-05-07 13:01 48.38457 6.12156 26631 ft 414 kts 32°
2026-05-07 13:01 48.40850 6.14538 26132 ft 411 kts 32°
2026-05-07 13:01 48.43229 6.16904 25639 ft 409 kts 32°
2026-05-07 13:01 48.45600 6.19244 25151 ft 406 kts 32°
2026-05-07 13:02 48.47965 6.21563 24665 ft 405 kts 31°
2026-05-07 13:02 48.50328 6.23871 24182 ft 403 kts 31°
2026-05-07 13:02 48.52682 6.26167 23688 ft 401 kts 31°
2026-05-07 13:02 48.55030 6.28457 23122 ft 400 kts 31°
2026-05-07 13:03 48.57360 6.30733 22595 ft 398 kts 31°
2026-05-07 13:03 48.59648 6.32970 22104 ft 395 kts 31°
2026-05-07 13:03 48.61943 6.35217 21629 ft 392 kts 31°
2026-05-07 13:03 48.64229 6.37454 21137 ft 389 kts 30°
2026-05-07 13:04 48.66671 6.39128 20630 ft 383 kts 11°
2026-05-07 13:04 48.69292 6.39624 20173 ft 378 kts
2026-05-07 13:04 48.71914 6.39875 19662 ft 377 kts
2026-05-07 13:04 48.74533 6.40092 19198 ft 375 kts
2026-05-07 13:05 48.77136 6.40312 18727 ft 374 kts
2026-05-07 13:05 48.79728 6.40544 18256 ft 372 kts
2026-05-07 13:05 48.82315 6.40788 17731 ft 371 kts
2026-05-07 13:05 48.84875 6.41040 17246 ft 368 kts
2026-05-07 13:06 48.87421 6.41296 16778 ft 365 kts
2026-05-07 13:06 48.89920 6.41550 16332 ft 363 kts
2026-05-07 13:06 48.92428 6.41807 15880 ft 360 kts
2026-05-07 13:06 48.94912 6.42062 15438 ft 357 kts
2026-05-07 13:07 48.97386 6.42316 14998 ft 354 kts
2026-05-07 13:07 48.99841 6.42568 14559 ft 352 kts
2026-05-07 13:07 49.02276 6.42819 14122 ft 349 kts
2026-05-07 13:07 49.04691 6.43067 13664 ft 347 kts
2026-05-07 13:08 49.07097 6.43255 13082 ft 347 kts 357°
2026-05-07 13:08 49.09483 6.42722 12543 ft 345 kts 347°
2026-05-07 13:08 49.11827 6.41962 12063 ft 343 kts 347°
2026-05-07 13:08 49.14151 6.41204 11602 ft 341 kts 347°
2026-05-07 13:09 49.16474 6.40453 11147 ft 338 kts 347°
2026-05-07 13:09 49.18769 6.39719 10789 ft 333 kts 347°
2026-05-07 13:09 49.20942 6.39031 10658 ft 323 kts 347°
2026-05-07 13:09 49.23141 6.38338 10501 ft 314 kts 347°
2026-05-07 13:10 49.25249 6.37676 10360 ft 306 kts 347°
2026-05-07 13:10 49.27304 6.37030 10242 ft 297 kts 347°
2026-05-07 13:10 49.29283 6.36408 10115 ft 290 kts 347°
2026-05-07 13:10 49.31233 6.35795 9933 ft 285 kts 347°
2026-05-07 13:11 49.33177 6.35183 9622 ft 286 kts 347°
2026-05-07 13:11 49.35130 6.34567 9286 ft 286 kts 347°
2026-05-07 13:11 49.37073 6.33955 8983 ft 285 kts 347°
2026-05-07 13:11 49.39010 6.33344 8685 ft 284 kts 347°
2026-05-07 13:12 49.40939 6.32736 8394 ft 283 kts 347°
2026-05-07 13:12 49.42862 6.32129 8138 ft 281 kts 347°
2026-05-07 13:12 49.44121 6.31731 8076 ft 275 kts 347°
2026-05-07 13:12 49.45995 6.31139 7665 ft 278 kts 348°
2026-05-07 13:13 49.47890 6.30526 7375 ft 278 kts 344°
2026-05-07 13:13 49.49586 6.29168 7070 ft 277 kts 316°
2026-05-07 13:13 49.50657 6.26735 6754 ft 277 kts 289°
2026-05-07 13:13 49.50904 6.23820 6454 ft 276 kts 264°
2026-05-07 13:14 49.50440 6.20968 6159 ft 276 kts 250°
2026-05-07 13:14 49.49787 6.18188 5832 ft 276 kts 250°
2026-05-07 13:14 49.49135 6.15416 5533 ft 274 kts 250°
2026-05-07 13:14 49.48497 6.12657 5243 ft 272 kts 251°
2026-05-07 13:15 49.47879 6.09960 5117 ft 264 kts 251°
2026-05-07 13:15 49.47283 6.07330 4990 ft 256 kts 253°
2026-05-07 13:15 49.47153 6.04669 4855 ft 248 kts 283°
2026-05-07 13:15 49.47869 6.02345 4810 ft 236 kts 308°
2026-05-07 13:16 49.49040 6.00718 4788 ft 225 kts 327°
2026-05-07 13:16 49.50383 5.99489 4548 ft 225 kts 330°
2026-05-07 13:16 49.51755 5.98346 4303 ft 224 kts 338°
2026-05-07 13:16 49.53247 5.98170 4220 ft 215 kts 18°
2026-05-07 13:17 49.54435 5.99522 4053 ft 218 kts 52°
2026-05-07 13:17 49.55314 6.01426 3749 ft 217 kts 56°
2026-05-07 13:17 49.56077 6.03375 3451 ft 208 kts 59°
2026-05-07 13:17 49.56770 6.05261 3184 ft 198 kts 60°
2026-05-07 13:18 49.57434 6.07069 2925 ft 189 kts 59°
2026-05-07 13:18 49.58070 6.08787 2672 ft 179 kts 59°
2026-05-07 13:18 49.58669 6.10411 2438 ft 170 kts 59°
2026-05-07 13:18 49.59228 6.11923 2252 ft 154 kts 59°
2026-05-07 13:19 49.59732 6.13284 2007 ft 142 kts 60°
2026-05-07 13:19 49.60210 6.14576 1812 ft 138 kts 60°
2026-05-07 13:19 49.60679 6.15833 1637 ft 138 kts 60°
2026-05-07 13:19 49.61151 6.17117 1434 ft 138 kts 61°
2026-05-07 13:20 49.61623 6.18391 1267 ft 137 kts 61°
2026-05-07 13:20 49.62082 6.19629 1201 ft 123 kts 60°
2026-05-07 13:20 49.62410 6.20526 1234 ft 68 kts 62°
2026-05-07 13:20 49.62535 6.20864 1239 ft 5 kts 59°
2026-05-07 13:21 49.62538 6.20871 1239 ft 4 kts 59°
2026-05-07 13:21 49.62577 6.20962 1243 ft 17 kts 53°
2026-05-07 13:21 49.62690 6.21131 1248 ft 27 kts 34°
2026-05-07 13:21 49.62819 6.21251 1237 ft 15 kts 30°
2026-05-07 13:22 49.62911 6.21328 1238 ft 15 kts 17°
2026-05-07 13:22 49.62992 6.21373 1243 ft 10 kts 53°
2026-05-07 13:22 49.63022 6.21466 1243 ft 10 kts 64°
2026-05-07 13:22 49.63050 6.21557 1240 ft 9 kts 65°
2026-05-07 13:23 49.63078 6.21646 1243 ft 9 kts 63°
2026-05-07 13:23 49.63105 6.21731 1240 ft 9 kts 65°
2026-05-07 13:23 49.63150 6.21765 1236 ft 9 kts 334°